Regional Weather Roundup
Issued by NWS Wakefield, VA

Home | Current Version | Previous Version | Text Only | Print | Product List | Glossary Off
Versions: 1 2 3 4 5 6 7 8 9 10 11 12 13 14 15 16 17 18 19 20 21 22 23 24 25 26 27

000
ASUS41 KAKQ 292215
RWRAKQ

REGIONAL WEATHER ROUNDUP
NATIONAL WEATHER SERVICE WAKEFIELD VA
600 PM EDT MON AUG 29 2016

Note: "fair" indicates few or no clouds below 12,000 feet with no
significant weather and/or obstructions to visibility. * = Denotes
station may not report precipitation (e.g., rain,snow,etc.),
thunder or fog.

VAZ042-051-052>054-056-292300-
NORTHERN VIRGINIA

CITY           SKY/WX    TMP DP  RH WIND       PRES   REMARKS
WASH NATIONAL  MOSUNNY   91  66  43 NW6       30.07S
DULLES         MOSUNNY   89  65  44 N6        30.08F
FORT BELVOIR   MOSUNNY   88  71  56 SE6       30.07S
QUANTICO       MOSUNNY   89  67  47 S3        30.08S
FREDERICKSBRG*   N/A     91  67  46 CALM      30.07S
STAFFORD*      SUNNY     90  65  43 CALM      30.12S
WARRENTON      SUNNY     91  60  35 NW7       30.08F
CULPEPER*      SUNNY     90  69  50 NW3       30.09F
MANASSAS*      CLOUDY    90  70  51 SE6       30.08  HX  95
LEESBURG*      MOSUNNY   90  70  51 N3        30.10S HX  95
WINCHESTER     MOSUNNY   88  68  51 CALM      30.11F
FRONT ROYAL*   FAIR      88  68  51 CALM      30.11S
LURAY*         FAIR      90  64  43 NE3       30.12F
$$

VAZ048-049-060>072-079>083-292300-
CENTRAL AND SOUTH CENTRAL VIRGINIA

CITY           SKY/WX    TMP DP  RH WIND       PRES   REMARKS
RICHMOND       MOSUNNY   89  63  41 NE6       30.09R
CHESTERFIELD*  FAIR      90  59  35 E6        30.10S
PETERSBURG*    SUNNY     91  61  37 NE10      30.10R
HANOVER        SUNNY     87  67  51 E3        30.10F
TAPPAHANNOCK*  SUNNY     89  63  42 N5        30.10R
QUINTON*       FAIR      89  64  44 CALM      30.08S
CHARLOTTSVILLE SUNNY     90  66  45 NE7       30.11S
GORDONSVILLE*  FAIR      88  70  55 CALM      30.10S
ORANGE*        NOT AVBL
LOUISA*        MOSUNNY   91  73  55 CALM      30.10R HX 100
BUMPASS*       FAIR      87  71  58 CALM      30.10S
FARMVILLE*     SUNNY     89  66  47 NE8       30.09S
CREWE*         FAIR      89  65  46 N5        30.09S
FORT PICKETT*  FAIR      90  58  33 NE8       30.10R
CHASE CITY*    FAIR      89  57  34 N5        30.10R
CLARKSVILLE*   FAIR      88  61  40 CALM      30.09R
SOUTH HILL*    CLOUDY    87  60  40 CALM      30.15R
LAWRENCEVILLE* FAIR      89  61  39 E5        30.09R
EMPORIA*       CLOUDY    86  59  39 CALM      30.10R
$$

VAZ088>098-292300-
SOUTHEAST VIRGINIA

CITY           SKY/WX    TMP DP  RH WIND       PRES   REMARKS
NORFOLK        SUNNY     82  66  58 E12       30.09S
VIRGINIA BEACH CLOUDY    81  68  64 E6        30.08S
NORFOLK NAVAL  PTSUNNY   82  69  64 NE8       30.11R
WEST POINT*    MOSUNNY   88  60  39 E8        30.10S
SALUDA*        FAIR      85  66  52 E5        30.09S
NEWPORT NEWS   SUNNY     85  65  51 E9        30.10R
LANGLEY AFB    SUNNY     85  66  54 NE8       30.09R
FORT EUSTIS    SUNNY     91  66  42 VRB7      30.07R
WILLIAMSBURG*  SUNNY     91  61  35 CALM      30.10R
HR EXEC AP*    FAIR      82  66  57 NE8       30.11S
FRANKLIN*      SUNNY     88  51  27 E8        30.09R
US460-WAKEFLD  SUNNY     88  59  37 E7        30.09R
$$

VAZ020-022-025-037-045-292300-
WEST CENTRAL AND SOUTHWEST VIRGINIA

CITY           SKY/WX    TMP DP  RH WIND       PRES   REMARKS
STAUNTON*      SUNNY     87  65  48 E6        30.16S
WAYNESBORO*    FAIR      86  65  49 CALM      30.15S
HOT SPRINGS VA MOSUNNY   76  63  63 CALM      30.28F
LYNCHBURG      SUNNY     86  65  49 E8        30.13F
DANVILLE       CLOUDY    81  69  67 CALM      30.11S
SOUTH BOSTON*  FAIR      89  59  36 NE6       30.09S
MARTINSVILLE   CLOUDY    88  68  51 CALM      30.15S
ROANOKE        MOSUNNY   88  65  46 VRB3      30.15S
BLACKSBURG     SUNNY     85  66  51 E6        30.22S
DUBLIN*        SUNNY     86  65  49 E5        30.20S
MARION*        SUNNY     85  63  48 NE5       30.24R
HILLSVILLE*    MOSUNNY   81  68  64 E5        30.21S
RICHLANDS*     FAIR      75  68  77 N9        30.23S
WISE*          MOSUNNY   84  59  42 N7        30.23S
ABINGDON*      MOSUNNY   86  63  44 SE9       30.17S
$$

MDZ021>025-VAZ099-100-292300-
SOUTHERN MARYLAND AND THE DELMARVA PENINSULA

CITY           SKY/WX    TMP DP  RH WIND       PRES   REMARKS
PATUXENT RIVER MOSUNNY   88  68  51 CALM      30.07S
BAY BRIDGE APT SUNNY     88  68  51 CALM      30.07S
LEONARDTOWN    SUNNY     86  68  54 CALM      30.09S
DOVER          SUNNY     88  74  63 W8        30.05S HX  97
GEORGETOWN     SUNNY     89  70  53 N6        30.07S
EASTON         MOSUNNY   90  72  55 N5        30.11S HX  96
CAMBRIDGE      SUNNY     86  68  54 NW3       30.07S
SALISBURY      PTSUNNY   87  70  56 NW7       30.07R
OCEAN CITY     MOSUNNY   82  68  62 SE6       30.08S
WALLOPS ISLAND SUNNY     83  64  52 S7        30.09R
ACCOMACK*      SUNNY     83  62  47 SE6       30.09S
$$

NCZ012>017-030>032-292300-
NORTH CENTRAL AND EASTERN NORTH CAROLINA

CITY           SKY/WX    TMP DP  RH WIND       PRES   REMARKS
ROANOKE RAPIDS FAIR      82  68  61 N3        30.08S
RALEIGH        PTSUNNY   87  63  44 NE7       30.09S
ELIZABETH CITY CLOUDY    81  66  60 NE12      30.09R
AHOSKIE*       SUNNY     84  73  71 SE5       30.08S
EDENTON*       CLOUDY    85  71  61 NE8       30.08S
CURRITUCK*       N/A     81  68  64 NE5       30.10S
KILL DEVIL HLS CLOUDY    82  73  73 NE7       30.07R
MANTEO         CLOUDY    80  71  74 NE12      30.08R
CAPE HATTERAS  MOSUNNY   83  75  77 VRB7G21   30.05R
TARBORO*       FAIR      87  74  64 E6        30.08R HX  96
GOLDSBORO      CLOUDY    84  73  70 E10       30.06R THUNDER
WASHINGTON     CLOUDY    81  74  81 NE5       30.07S
GREENVILLE     CLOUDY    86  75  70 E8        30.08S HX  95
NEW BERN       CLOUDY    76  74  93 CALM      30.08S
WILMINGTON     CLOUDY    76  74  93 N5        30.06S
$$

VAZ048-292300-
ELSEWHERE

CITY           SKY/WX    TMP DP  RH WIND       PRES   REMARKS
HARRISBURG PA  MOSUNNY   88  61  40 NE8       30.08F
BALTIMORE      PTSUNNY   89  70  53 SE8       30.06F
ANNAPOLIS      SUNNY     86  70  58 SE6       30.07S
ANDREWS AFB    SUNNY     89  68  49 VRB2      30.07S
PHILADELPHIA   MOSUNNY   92  61  35 N10       30.05S
HENDERSON NC   SUNNY     83  59  42 E3        30.10R
GREENSBORO     CLOUDY    83  65  54 E6        30.11F
ROCKY MOUNT    CLOUDY    88  70  55 NE7       30.07R
$$

VAZ100-292300-
MARINE

STATION/POSITION TIME  TEMP    WIND        PRES    WAVE   SWELL
                       AIR SEA DIR/SP/G            HT/PER HT/PER
                 (UTC) (F)     (DEG/KT/KT) (MB)    (FT/S) (FT/S)
BRANDYWINE LGT   2100   82     330/  3/  4   N/A
CAPE MAY NJ      2100   83 77  300/  5/  7 1017.6F
LEWES DE         2100   82 79   60/  2/  2 1018.1F
OCEAN-CITY-INLET 2100   80 78  160/  6/  7 1018.9F
WACHAPREAGUE VA  2100   81 84  100/  6/  8 1018.8F
THOMAS POINT MD  2200   85 84  140/  1/  2 1019.5F
GOOSES REEF MD   2100   86 85   20/  2/  2 1019.1F   0
COVE POINT MD    2100   84      20/  5/  6 1019.0F
SOLOMONS ISLAND  2100   85 85  150/  2/  5   N/A
BISHOPS HEAD MD  2100   85 85  300/ 11/ 12 1018.7F
PINEY POINT MD   2100          190/  4/  4   N/A
POTOMAC MD       2100   84 85  150/  4/  4 1017.5F   1
CAMBRIDGE MD     2100   85 83  310/  7/  9 1017.6F
LEWISETTA VA     2100   84 84  130/  3/  4 1018.2F
RAPPAHANNOCK LGT 2100          350/ 10/ 11 1019.4F
STINGRAY PT      2100   84 84  320/  8/  8 1019.4F   1/ 2
YORK RVR RNG VA  2100   83      70/ 11/ 12 1018.3F
YORKTOWN VA      2100   84 84   80/  9/ 11 1018.3F
JAMESTOWN VA     2100   88 87   20/  6/ 10   N/A     0
DOMINION TERM VA 2100   84      80/  9/ 11 1018.8R
KIPTOPEKE VA     2100      82   70/  8/ 11   N/A
CHES BAY BRIDGE  2100   79 80   50/ 10/ 11 1018.9R
CAPE HENRY VA    2100   78      60/ 11/ 12   N/A
WILLOUBY STN VA  2100   81      40/ 12/ 13   N/A
CAPE HENRY BUOY  2112      80                N/A     4/13   2/13
1ST LANDING BUOY 2100   79 80  100/ 10/ 12 1018.6R   3/ 4
OFFSHORE WE BUOY 2051      81                N/A     4/13   2/13
64NM E OF VA BCH 2150   79 81   40/ 14/ 17 1018.0S   5/13   3/13
DUCK PIER NC     2100   80 79   30/ 14/ 16 1017.7F
44100 DUCK FRF   2135      81                N/A     4/13   2/13
44056 DUCK FRF   2111      81                N/A     5/13   2/13
OREGON INLET NC  2100   81 80   20/ 13/ 17 1017.7F
HATTERAS NC      2100   83 84   40/ 10/ 15 1016.9S
DIAMOND SHLS NC  2150   80 84   60/ 21/ 27 1016.3F   6/ 8   3/13
CAPE LOOKOUT NC  2200   83      40/ 17/ 20 1016.8R
$$




USA.gov is the U.S. government's official web portal to all federal, state and local government web resources and services.